Location: De Westergast
(53.2500°N, 6.3833°E)
Time: 21:34:21
(UTC+00:00)

Daily predictions for brighter satellites

Satellite Brightness Start Highest point End
(mag) Time Altitude Azimuth Time Altitude Azimuth Time Altitude Azimuth
In-Cosmos 22 Rocket 4.3 17:02:15 10° S 17:07:38 61° E 17:13:13 10° NNE
Cosmos 841 Rocket 3.7 17:03:05 10° SSW 17:08:16 80° WNW 17:13:27 10° NNE
ATLAS 3B R/B 4.3 17:01:16 10° NW 17:08:38 46° WSW 17:15:36 10° S
Cosmos 2084 Rocket 4.4 17:06:21 10° W 17:10:17 40° NNW 17:14:15 10° NE
SAR-Lupe-4 3.8 17:07:22 10° SE 17:10:47 47° ENE 17:14:15 10° N
Cosmos 1125 Rocket 4.0 17:06:40 10° NNW 17:11:29 37° NE 17:16:18 10° ESE
Cosmos 1455 Rocket 4.5 17:09:32 10° NNE 17:12:24 17° ENE 17:15:14 10° ESE
Cosmos 1000 Rocket 4.5 17:08:27 10° S 17:14:36 76° E 17:20:51 10° NNE
IRS-1C 4.2 17:09:17 10° SSE 17:14:37 87° WSW 17:19:59 10° NNW
Okean 2 Rocket 3.5 17:17:16 10° N 17:21:25 38° ENE 17:25:30 10° SE
YAOGAN 1 2.7 17:17:51 10° SE 17:21:57 49° ENE 17:26:05 10° N
Cosmos 2123 Rocket 4.1 17:16:34 10° S 17:22:48 65° E 17:29:03 10° NNE
Okean 1 Rocket 3.6 17:20:47 10° N 17:24:54 36° ENE 17:28:57 10° SE
NOAA 6 4.4 17:20:16 10° SE 17:25:03 41° ENE 17:29:53 10° N
COSMOS 2428 2.7 17:21:15 10° NNW 17:27:01 75° NE 17:32:45 10° SE
Spot 4 Rocket 4.2 17:22:20 10° SE 17:27:16 51° ENE 17:32:12 10° N
Cosmos 1980 4.0 17:25:12 10° NNW 17:30:40 45° NE 17:36:05 10° ESE
Sich 1 Rocket 4.1 17:26:40 10° N 17:30:58 40° ENE 17:35:15 10° SE
ARIANE 5 R/B 3.2 17:28:49 10° S 17:33:53 61° WSW 17:38:56 10° NNW
Cosmos 2237 Rocket 2.5 17:30:49 10° NNW 17:36:18 46° NE 17:41:46 10° ESE
Aureole 3 Rocket 3.5 17:32:12 10° N 17:36:25 33° ENE 17:39:42 10° SE
Cosmos 158 Rocket 4.1 17:33:15 10° S 17:37:55 47° ESE 17:42:35 10° NE
ATLAS 5 CENTAUR R/B 2.8 17:33:55 10° WNW 17:37:55 45° SW 17:42:48 10° SSE
Cosmos 192 4.3 17:33:11 10° NNW 17:38:05 79° ENE 17:42:58 10° SSE
SeaSat 1 3.5 17:36:08 10° SSE 17:40:53 50° WSW 17:45:40 10° NW
Cosmos 1378 Rocket 3.5 17:36:56 10° S 17:41:12 64° E 17:45:28 10° NNE
ARIANE 6 FM1 Upper Stage 3.9 17:38:18 10° NW 17:41:39 25° N 17:44:13 14° ENE
SKYMED 2 3.6 17:37:46 10° NNE 17:42:05 60° ESE 17:46:23 10° S
Resurs 01 Rocket 2.0 17:38:13 10° SE 17:42:19 39° ENE 17:46:27 10° N
GP-B 3.1 17:40:50 10° S 17:45:12 85° W 17:49:36 10° N
Cosmos 2219 Rocket 4.0 17:40:49 10° NW 17:45:52 35° WSW 17:50:52 10° S
COSMO-SKYMED 1 2.9 17:42:27 10° NNE 17:46:21 39° E 17:50:13 10° SSE
Cosmos 2228 4.2 17:44:24 10° NNE 17:47:31 20° ENE 17:49:16 16° E
Cosmos 2292 Rocket 2.8 17:47:44 10° SSW 17:50:36 71° WNW 17:53:42 10° N
Cosmos 2322 4.0 17:45:32 10° NW 17:51:15 72° WSW 17:56:55 10° SSE
PSLV R/B 3.4 17:48:02 10° SSE 17:52:07 62° ENE 17:56:11 10° N
NOSS 3-3 (A) 4.2 17:47:49 10° S 17:52:39 40° ESE 17:57:36 13° ENE
Cosmos 2016 Rocket 4.2 17:47:03 10° NNW 17:53:17 76° W 17:59:33 10° S
USA 306 2.9 17:50:43 10° W 17:53:32 35° SSW 17:55:02 15° SSE
Resurs 1-3 3.7 17:51:33 10° SSE 17:55:51 80° WSW 18:00:11 10° NNW
Cosmos 1782 4.4 17:53:48 10° NNE 17:55:09 14° NE 17:55:09 14° NE
Cosmos 2285 Rocket 4.0 17:51:42 10° NNW 17:58:09 71° ENE 18:04:33 10° SE
Cosmos 1025 Rocket 3.1 17:55:19 10° S 17:59:31 55° E 18:03:47 10° NNE
SL-16 R/B 3.2 17:54:41 10° NNW 17:59:34 28° NE 18:02:26 19° E
Cosmos 2242 Rocket 4.0 17:55:24 10° SSW 17:59:44 64° WNW 18:04:07 10° N
SJ-7 4.0 17:56:11 10° SSE 17:59:52 83° ENE 18:03:35 10° NNW
Cosmos 2227 Rocket 3.9 18:02:12 10° SE 18:03:35 13° ESE 18:03:35 13° ESE
NOSS 3-4 (A) 3.7 18:02:08 10° NW 18:08:31 69° NE 18:15:10 14° ESE
NOSS 3-4 (C) 3.7 18:02:22 10° NW 18:08:47 69° NE 18:15:23 14° ESE
SJ-6B 2.7 18:05:45 10° SE 18:09:02 43° ENE 18:12:21 10° N
Cosmos 2233 Rocket 4.2 18:02:59 10° NNW 18:09:15 77° W 18:15:31 10° S
SPOT 5 3.6 18:08:21 19° ESE 18:11:03 32° ENE 18:15:31 10° N
CZ-2D R/B 3.9 18:09:53 10° S 18:13:44 61° WSW 18:17:43 10° NNW
Cosmos 1315 Rocket 4.1 18:11:44 10° NNW 18:15:19 41° W 18:18:54 10° SSW
Cosmos 1674 Rocket 3.6 18:11:20 10° SSW 18:15:43 85° W 18:20:10 10° N
Cosmos 1513 Rocket 4.5 18:10:56 10° N 18:17:07 61° ENE 18:23:23 10° SSE
Meteor 1-11 4.3 18:13:33 10° SSW 18:19:11 81° WNW 18:24:58 10° NNE
SL-16 R/B 4.4 18:17:50 10° N 18:22:58 28° NW 18:28:06 10° WSW
Okean O Rocket 3.8 18:24:53 11° NNE 18:24:53 11° NNE 18:25:11 10° NNE
Cosmos 1867 3.6 18:18:04 10° SW 18:23:31 80° NW 18:27:56 16° NE
Cosmos 2061 Rocket 4.4 18:18:03 10° NNW 18:24:25 70° W 18:30:41 10° S
ATLAS 2AS CENTAUR R/B 3.6 18:19:27 10° W 18:25:58 42° NNW 18:31:15 15° NE
Cosmos 724 4.4 18:20:05 10° SW 18:26:16 90° NNW 18:31:22 15° NE
CZ-4 R/B 2.5 18:28:09 24° NE 18:28:09 24° NE 18:30:20 10° N
Lacrosse 5 rocket 0.9 18:23:42 10° WSW 18:27:13 83° NNW 18:28:21 42° ENE
CZ-4B R/B 4.0 18:26:45 27° ENE 18:27:33 28° ENE 18:32:01 10° N
Meteor 1-31 Rocket 3.2 18:32:59 36° NE 18:32:59 36° NE 18:35:37 10° N
ADEOS 4.3 18:32:00 29° ENE 18:32:35 30° ENE 18:37:05 10° N
CZ-4C R/B 1.7 18:28:38 10° SW 18:32:59 74° SE 18:36:09 25° NE
RESURS DK-1 4.4 18:31:41 10° N 18:33:27 14° NNE 18:33:27 14° NNE
IRAS Rocket 4.2 18:30:09 10° SSE 18:35:46 88° WSW 18:41:27 10° NNW
CARTOSAT-1 4.2 18:31:45 10° S 18:35:52 55° W 18:40:01 10° NNW
CRYOSAT 2 4.2 18:31:39 10° N 18:36:35 73° E 18:41:26 10° S
USA 290 3.6 18:37:55 10° SW 18:40:56 37° WNW 18:43:01 17° N
Cosmos 2082 Rocket 4.5 18:38:46 10° NW 18:42:03 15° NNW 18:45:20 10° NNE
Cosmos 1464 Rocket 3.9 18:38:32 10° N 18:44:55 68° ENE 18:51:12 10° SSE
USA 267 3.4 18:41:48 27° ENE 18:45:39 71° NNW 18:52:10 10° W
CSL-04 Debris 4.2 18:44:38 24° SE 18:47:51 59° ENE 18:53:12 10° N
ERS-1 Rocket 3.7 18:48:48 33° NE 18:48:48 33° NE 18:52:52 10° N
Cosmos 2297 Rocket 2.1 18:43:54 10° SSW 18:49:28 62° ESE 18:52:37 26° NE
Cosmos 1607 3.9 18:43:45 10° SW 18:49:54 81° NW 18:54:10 22° NE
Cosmos 1570 Rocket 4.0 18:45:22 10° S 18:50:31 57° ESE 18:52:48 32° NE
Cosmos 1455 Rocket 3.2 18:46:19 10° NNW 18:50:36 71° W 18:54:52 10° S
CSL-04 Rocket 3.5 18:47:26 23° SE 18:50:46 66° ENE 18:56:01 10° NNW
Cosmos 1943 4.2 18:46:12 10° NNW 18:51:05 28° NE 18:51:35 28° NE
Cosmos 2344 4.3 18:45:27 10° S 18:51:12 28° ESE 18:51:12 28° ESE
DNEPR-1 R/B 3.8 18:47:44 10° NW 18:52:26 78° NE 18:54:13 42° ESE
Cosmos 2221 Rocket 4.3 18:53:58 10° SSW 18:58:21 54° WNW 19:02:48 10° N
PAYLOAD B 4.2 19:05:27 48° ESE 19:06:46 61° ENE 19:12:18 10° N
Cosmos 2208 Rocket 4.0 19:02:35 10° S 19:07:29 57° ESE 19:07:29 57° ESE
Terra 2.9 19:11:52 31° NNE 19:11:52 31° NNE 19:14:42 10° N
NOSS 3-3 (C) 3.7 19:08:44 10° SW 19:14:10 86° NW 19:16:44 38° NE
CZ-4B R/B 4.1 19:14:52 60° SW 19:15:19 66° WSW 19:19:15 10° NNW
Meteor 2-17 Rocket 4.3 19:10:27 10° S 19:16:31 89° WNW 19:22:37 10° NNE
Resurs 01 Rocket 3.5 19:14:54 10° SSW 19:18:47 30° W 19:22:42 10° NNW
Cosmos 2237 Rocket 3.3 19:15:01 10° NW 19:20:21 43° WSW 19:25:40 10° S
ARIANE 6 FM1 Upper Stage 3.5 19:17:24 10° NW 19:20:14 41° NNW 19:20:14 41° NNW
COSMO-SKYMED 1 4.5 19:17:59 10° N 19:21:30 28° WNW 19:25:00 10° WSW
Cosmos 2228 3.5 19:20:45 10° NNW 19:24:50 55° W 19:25:37 47° SW
Cosmos 773 Rocket 3.8 19:19:45 10° SSW 19:25:01 80° ESE 19:25:06 80° E
Cosmos 2298 Rocket 4.5 19:27:48 10° NNW 19:33:00 58° WSW 19:34:42 40° SSW
NOSS 3-3 (A) 4.2 19:37:48 10° WSW 19:43:14 60° NNW 19:45:02 43° NNE
SL-16 R/B 2.1 19:38:37 10° NNW 19:44:19 82° WSW 19:44:20 82° WSW
Cosmos 2227 Rocket 3.4 19:42:45 10° SSW 19:45:30 30° SSW 19:45:30 30° SSW
SPOT 5 3.8 19:47:22 36° SW 19:48:49 47° W 19:53:42 10° NNW
MOS 1 4.2 19:49:13 80° SW 19:49:22 81° WSW 19:55:06 10° NNW
Okean O Rocket 4.0 20:02:07 16° N 20:02:07 16° N 20:03:01 10° N
Cosmos 2034 Rocket 4.4 19:54:25 10° NNW 20:00:28 58° W 20:02:53 36° SSW
CZ-4 R/B 3.8 20:03:09 19° NW 20:03:09 19° NW 20:04:29 10° NNW
Lacrosse 5 rocket 3.9 20:00:53 10° WNW 20:01:48 17° WNW 20:01:48 17° WNW
CZ-4B R/B 3.7 20:08:36 55° WNW 20:08:36 55° WNW 20:13:05 10° NNW
Cosmos 1634 Rocket 4.1 20:04:28 10° NNW 20:10:08 71° NW 20:10:08 71° NW
BREEZE-M DEB (TANK) 4.3 19:56:55 10° WSW 20:10:46 49° SSW 20:10:46 49° SSW
ADEOS 4.4 20:12:43 48° WNW 20:12:43 48° WNW 20:16:57 10° NNW
ATLAS 2AS CENTAUR R/B 3.6 20:12:11 10° WNW 20:18:25 35° N 20:18:40 35° NNE
CZ-4C R/B 3.3 20:17:06 10° W 20:21:07 38° NW 20:21:07 38° NW
ERS-1 Rocket 4.5 20:28:40 33° NW 20:28:40 33° NW 20:31:47 10° NNW
USA 267 3.5 20:29:08 63° NNW 20:29:08 63° NNW 20:34:56 10° WNW
Cosmos 2297 Rocket 3.6 20:28:43 10° WSW 20:33:52 35° NW 20:34:29 34° NNW
Cosmos 1943 4.5 20:30:03 10° NNW 20:33:23 37° NW 20:33:23 37° NW
Terra 4.2 20:50:29 19° NW 20:50:29 19° NW 20:52:08 10° NNW
